Regional Weather Roundup
Issued by NWS

Home | Current Version | Previous Version | Graphics & Text | Print | Product List | Glossary On
Versions: 1 2 3 4 5 6 7 8 9 10 11 12 13 14 15 16 17 18 19 20 21 22 23 24 25 26 27 28 29 30 31 32 33 34 35 36 37 38 39 40 41 42 43 44 45 46 47 48 49 50
046
ASUS45 KBOU 282307
RWRCO

WEATHER ROUNDUP FOR COLORADO
NATIONAL WEATHER SERVICE DENVER/BOULDER CO
500 PM MDT THU JUL 28 2016

NOTE: "FAIR" INDICATES FEW OR NO CLOUDS BELOW 12000 FEET WITH NO
SIGNIFICANT WEATHER AND/OR OBSTRUCTIONS TO VISIBILITY.

COZ001>005-013-030-031-290000-
...NORTHWEST COLORADO...

CITY           SKY/WX    TMP DP  RH WIND       PRES   REMARKS
CRAIG          FAIR      91  31  11 NW8       30.16F
HAYDEN         FAIR      88  30  12 NW16      30.19F
MEEKER         FAIR      93  29  10 N16G22    30.16F
MOUNT WERNER   NOT AVBL
STEAMBOAT SPGS FAIR      87  32  14 W16G23    30.22R
WALDEN         FAIR      79  34  19 NW13G33   30.33S
$$

COZ006>008-011-290000-
...WEST CENTRAL VALLEYS...

CITY           SKY/WX    TMP DP  RH WIND       PRES   REMARKS
GRAND JUNCTION FAIR     102  24   6 NW12G22   30.00F
MONTROSE       FAIR      96  27   8 NW7       30.11F
EAGLE          MOSUNNY   91  27   9 W15G21    30.18F
RIFLE          FAIR      95  22   7 W7        30.06F
DELTA          NOT AVBL
NUCLA          NOT AVBL
$$

COZ017>023-064>068-290000-
...SOUTHWEST COLORADO...

CITY           SKY/WX    TMP DP  RH WIND       PRES   REMARKS
DURANGO        FAIR      90  32  12 W14       30.21F
CORTEZ         FAIR      95  34  11 N13G18    30.12F
PAGOSA SPRINGS FAIR      87  26  11 W15       30.30F
TELLURIDE      FAIR      77  24  14 W12G26    30.47S
WOLF CREEK PAS FAIR      63  34  34 S10G18    30.71S
$$

COZ009-010-012-014-032>034-037-058>063-290000-
...CENTRAL COLORADO...

CITY           SKY/WX    TMP DP  RH WIND       PRES   REMARKS
ASPEN          FAIR      83  26  12 NW10      30.29F
BUENA VISTA    FAIR      88  18   7 W15G26    30.29S
COPPER MTN     CLOUDY    66  18  15 W3        30.69R
BERTHOUD PASS  PTSUNNY   55  41  58 NW18      30.70F
COTTONWOOD PAS FAIR      82   1   4 W9        30.48S
GUNNISON       FAIR      86  27  11 W13G21    30.31F
KREMMLING      FAIR      90   9   5 NW16G24   30.26F
LEADVILLE      FAIR      71  21  15 N17G37    30.49S
MONARCH PASS   PTSUNNY   68  23  18 MISG      30.78F
SALIDA         FAIR      90  20   7 NW18G24   30.31S
SUNLIGHT       NOT AVBL
WILKERSON PASS FAIR      66  32  28 W5        30.65F
$$

COZ069>075-290000-
...SAN LUIS VALLEY/SANGRE DE CRISTO MOUNTAINS...

CITY           SKY/WX    TMP DP  RH WIND       PRES   REMARKS
ALAMOSA        FAIR      86  36  16 SW20      30.25F
LA VETA PASS   PTSUNNY   73  34  23 NE14G23   30.50F
SAGUACHE       FAIR      90  28  11 NW20      30.28F
$$

COZ035-036-038>040-290000-
...NORTHERN COLORADO FRONT RANGE...

CITY           SKY/WX    TMP DP  RH WIND       PRES   REMARKS
DENVER INTL AP FAIR      82  55  39 NE10      30.17S
DMNS CITY PARK   N/A     84  55  37 E14       30.15S
AURORA         PTSUNNY   82  57  42 E9        30.19F
FRONT RANGE AP PTSUNNY   82  55  39 N8        30.19S
ERIE MUNI ARPT PTSUNNY   83  53  35 NE8G17    30.15F
BOULDER MUN AP FAIR      82  54  36 E5        30.16F
CENTENNIAL     FAIR      82  51  34 N12       30.19R
BROOMFIELD     PTSUNNY   82  55  39 N12       30.19F
LONGMONT       NOT AVBL
$$

COZ041-046-047-076>085-087-088-290000-
...PIKES PEAK/PALMER DIVIDE AND SOUTHERN FOOTHILLS...

CITY           SKY/WX    TMP DP  RH WIND       PRES   REMARKS
COLO. SPRINGS  PTSUNNY   89  48  24 NE16G22   30.19R
A. F. ACADEMY  FAIR      82  52  35 N16       30.22S
SCHRIEVER AFB  NOT AVBL
ELLICOTT       NOT AVBL
FALCON         NOT AVBL
FORT CARSON    NOT AVBL
LIMON          FAIR      87  57  35 E17G24    30.12S
MONUMENT HILL  FAIR      79  52  38 NE12G17   30.30S
TRINIDAD       NOT AVBL
$$

COZ042>045-048>051-090-091-290000-
...NORTHEAST COLORADO...

CITY           SKY/WX    TMP DP  RH WIND       PRES   REMARKS
GREELEY ARPT   PTSUNNY   75  57  53 NE5       30.17F
AKRON          FAIR      77  60  55 E12       30.15S
BURLINGTON     FAIR      84  58  40 E16       30.09S
WRAY           FAIR      79  57  47 NE9       30.10
STERLING       NOT AVBL
HOLYOKE        NOT AVBL
FORT MORGAN    NOT AVBL
$$

COZ086-089-092>099-290000-
...SOUTHEAST COLORADO...

CITY           SKY/WX    TMP DP  RH WIND       PRES   REMARKS
PUEBLO         FAIR     100  42  13 E14       30.00F
LA JUNTA       FAIR      95  58  28 E22G29    29.98S
LAMAR          FAIR      93  58  30 SE22G29   29.95F
SPRINGFIELD      N/A     69  61  75 SE30G40   30.05F
$$




USA.gov is the U.S. government's official web portal to all federal, state and local government web resources and services.